Wind_Speed
71 68 68 68 69 69 70 70 71 71 72 73 73 74 74 75 76 76 77 78 78 79 80 81 82 82 82 83 83 83 84 84 84 85 85 85 85 84 83 83 83 82 81 81 82 82 82 81 79 78 78 79 79 80 81 81 83 84 85 85 85 85 85 85 85 82 82 82 81 81 82 82 82 82 83 86 88 91 93 95 97 98 99 100 101
68 67 68 69 70 70 70 71 71 72 72 73 73 74 75 76 77 78 78 79 79 80 81 81 82 83 83 83 83 84 84 85 85 86 85 85 84 83 83 83 82 82 82 81 80 80 79 78 76 74 75 76 76 76 77 78 80 81 82 82 82 82 82 82 82 80 79 79 78 79 81 81 82 82 82 84 86 88 90 92 93 94 96 97 97
68 68 69 70 70 71 71 71 72 72 73 74 74 76 77 77 78 79 79 80 81 81 82 82 82 83 83 83 84 84 85 85 86 86 86 85 84 83 83 83 83 83 82 80 79 78 76 74 72 71 73 73 73 73 74 75 76 77 78 79 79 78 79 79 79 78 76 76 76 77 78 80 80 80 81 82 84 86 87 88 89 90 91 92 93
68 69 70 70 70 71 71 72 72 73 74 75 76 77 78 78 79 80 80 81 82 82 83 83 83 83 83 84 84 85 86 86 86 86 86 86 85 84 84 84 83 82 81 79 76 75 73 70 69 69 70 71 70 71 71 72 73 74 74 75 75 75 75 76 75 75 74 73 73 74 76 77 77 78 79 81 82 84 84 84 85 86 88 88 88
69 70 70 70 70 71 72 72 73 74 75 76 77 78 78 79 80 81 82 82 82 83 83 83 83 84 84 85 85 86 86 86 86 86 86 86 86 86 85 84 82 81 78 76 73 71 70 68 67 67 68 68 68 67 68 68 69 70 71 71 72 72 72 73 72 72 72 71 70 71 73 74 75 75 76 78 79 80 81 81 82 84 84 84 84
70 70 70 70 71 72 73 74 75 75 76 77 77 78 80 81 82 82 83 83 83 83 83 83 84 85 85 86 86 87 87 87 86 86 86 87 87 86 84 82 80 77 75 72 70 68 67 66 65 65 66 66 65 65 65 66 67 67 67 68 68 69 69 69 69 69 69 68 68 69 70 71 71 71 72 73 75 76 77 78 80 80 79 77 74
70 70 70 71 72 73 74 75 76 76 77 78 79 80 82 82 83 83 84 84 83 83 83 84 85 86 87 87 87 87 87 87 87 87 87 87 87 85 82 79 76 73 71 69 67 65 64 63 63 63 63 63 62 62 62 63 64 64 65 65 65 66 66 66 66 66 66 66 66 66 66 67 67 67 67 69 71 72 73 73 74 72 69 64 61
69 70 71 72 73 74 75 76 77 78 79 80 81 83 83 84 84 84 84 84 84 84 85 85 87 88 88 88 88 88 87 87 88 88 88 87 84 81 78 75 72 70 68 66 65 63 62 61 60 61 61 61 60 60 61 61 62 62 62 62 63 63 63 63 63 63 63 63 63 63 63 63 63 63 63 64 65 66 66 66 66 65 62 56 52
69 71 72 73 74 75 76 77 78 80 81 82 84 84 84 84 84 84 84 84 84 85 86 88 88 89 89 88 88 88 88 88 89 89 87 84 81 77 74 71 69 68 66 65 63 61 60 59 59 59 60 59 59 59 59 59 60 60 59 60 60 60 60 60 60 61 61 61 60 60 60 60 59 59 59 59 60 60 61 62 61 61 59 53 50
71 72 74 75 76 77 78 79 81 82 84 84 85 85 84 84 83 83 84 84 86 87 88 89 89 89 89 89 89 89 90 90 89 87 84 80 77 73 70 68 67 66 65 64 62 60 59 58 58 58 58 59 58 58 58 58 58 58 58 58 58 58 58 58 58 59 59 59 58 58 58 57 56 56 56 56 57 57 59 60 58 57 56 52 50
72 74 75 76 78 79 80 82 83 84 85 85 84 84 83 83 83 83 84 86 87 88 89 89 89 89 89 89 90 90 90 89 86 82 78 75 73 70 67 65 64 64 64 63 61 60 59 57 57 57 57 57 57 57 57 57 57 57 57 57 57 57 57 57 57 57 57 57 56 56 55 53 52 53 54 54 55 55 57 58 57 54 53 51 51
74 75 77 78 80 81 82 83 84 84 83 83 82 82 82 83 84 85 86 87 88 88 88 89 89 89 90 90 91 90 88 84 80 76 72 70 69 68 66 64 63 62 62 61 60 59 58 57 56 55 56 55 56 56 56 56 56 56 56 56 56 56 56 56 56 56 56 55 54 53 51 50 50 51 52 52 53 53 54 57 57 55 53 53 53
75 77 79 80 81 82 82 82 82 81 81 81 81 81 82 84 85 86 87 87 87 87 88 88 89 90 91 91 89 86 82 77 73 69 66 65 65 65 64 63 61 61 60 59 59 58 57 57 55 55 55 55 55 55 55 55 55 55 55 55 55 54 54 54 54 54 54 53 52 50 48 48 48 49 50 51 52 52 52 53 55 55 55 55 56
77 78 79 80 80 80 80 79 79 79 79 80 81 82 84 85 86 87 87 86 87 87 88 89 89 90 89 86 83 78 73 69 66 63 61 60 61 62 62 61 60 59 59 58 57 57 56 56 55 54 54 54 55 55 54 54 54 54 54 54 53 53 53 53 53 52 52 51 49 47 46 47 47 48 50 51 51 52 51 49 49 51 53 55 56
76 77 77 78 78 78 78 77 78 78 79 81 82 84 85 86 86 86 86 86 87 87 88 89 88 86 83 79 74 69 66 64 61 59 58 57 58 59 59 59 58 57 58 58 56 55 55 54 54 53 53 53 54 54 54 53 53 53 53 52 52 52 51 51 51 51 50 49 46 45 45 46 47 48 49 49 49 50 51 49 47 48 50 52 54
74 75 75 76 76 77 77 77 78 79 80 82 83 84 85 85 86 86 85 86 87 88 87 86 83 79 75 71 67 63 61 61 59 57 56 55 55 56 56 56 56 55 56 57 55 53 53 53 53 52 52 52 53 53 53 52 52 52 52 51 51 50 50 50 50 49 49 47 45 43 44 45 46 47 48 47 47 48 49 48 48 49 49 50 51
73 74 74 75 75 76 78 78 79 80 82 82 83 84 84 84 85 85 85 86 86 85 82 79 76 72 67 64 63 61 60 59 58 55 54 53 53 53 52 53 53 52 53 54 54 52 52 52 51 51 51 51 51 52 52 52 51 51 50 50 49 49 48 49 49 48 47 45 44 43 44 45 46 47 48 48 48 49 49 49 50 50 49 49 49
73 74 74 76 77 78 79 80 81 82 82 83 83 83 83 84 84 85 85 84 82 79 76 72 68 65 62 61 61 60 59 57 56 53 51 51 50 50 50 50 50 49 50 51 52 52 51 50 50 50 50 50 50 50 51 51 50 49 49 49 48 47 48 48 48 47 45 44 43 43 44 46 47 48 48 49 50 51 51 51 51 50 48 47 48
73 74 75 77 78 79 80 81 82 82 82 82 82 83 83 83 83 83 82 80 76 73 70 66 62 59 59 60 60 60 58 55 54 51 49 48 48 48 48 47 47 47 47 48 49 50 50 50 50 49 49 49 49 49 50 50 49 48 47 47 47 47 47 48 47 45 44 43 43 44 44 46 48 48 48 48 49 50 51 50 49 48 46 46 47
74 75 76 77 79 80 81 81 82 82 82 81 81 81 82 81 81 79 76 73 70 67 64 61 57 56 57 58 59 59 56 53 50 48 46 45 45 46 46 45 45 45 45 45 46 47 48 48 48 48 48 48 48 48 49 48 48 47 46 46 46 47 47 47 45 44 42 42 42 43 44 46 48 48 47 47 47 47 47 47 46 45 45 45 46
75 76 77 78 79 80 80 81 81 81 80 80 79 79 79 78 76 74 71 67 64 61 59 57 54 54 55 56 57 56 53 50 47 44 43 42 42 43 44 43 43 43 43 43 44 45 46 47 47 47 48 47 47 47 47 47 47 45 44 44 46 47 46 45 43 42 41 41 42 42 43 45 46 46 45 44 44 44 44 44 44 44 44 44 45
76 77 78 78 79 79 79 79 79 78 78 78 77 75 74 73 71 69 66 62 59 57 56 54 52 52 53 53 53 51 48 45 42 40 39 39 39 41 42 41 41 42 41 41 42 43 44 45 46 46 47 47 46 45 45 45 45 43 43 44 45 46 44 42 42 41 41 41 41 41 41 43 44 44 43 42 42 42 42 43 43 43 44 44 45
77 78 78 78 78 77 77 76 76 76 76 75 73 72 70 68 67 65 62 59 56 54 53 51 50 50 50 48 48 47 43 40 38 36 36 36 37 38 39 40 40 40 40 39 40 41 42 43 44 45 46 45 45 44 43 44 43 43 43 43 43 42 42 41 41 41 40 40 40 39 39 41 42 42 41 40 41 42 42 42 43 44 44 44 45
77 77 77 76 75 74 74 74 74 74 73 72 70 68 65 63 62 61 59 57 54 52 50 48 48 48 46 43 43 41 39 37 35 34 33 34 34 35 36 37 38 39 39 38 38 39 40 41 43 44 44 44 43 42 43 43 43 42 41 39 39 40 40 40 40 40 40 39 39 38 38 40 40 40 39 40 42 43 43 42 43 43 43 43 44
75 75 74 73 73 72 72 72 71 71 70 68 66 63 61 59 58 57 56 54 52 50 47 47 47 45 42 40 39 37 36 35 33 32 32 32 32 32 33 34 36 37 37 37 37 37 38 39 41 41 42 41 41 41 42 42 41 40 38 37 38 39 39 39 39 39 39 38 37 37 38 38 39 38 39 41 43 44 43 42 42 43 43 42 42
73 73 72 72 71 71 70 69 68 67 65 64 61 59 58 56 55 55 54 52 50 48 46 45 44 41 38 38 37 35 34 34 32 31 30 29 30 30 30 31 33 34 35 35 36 36 37 38 39 39 39 39 40 40 41 40 38 37 37 37 37 37 38 38 38 38 38 37 36 37 37 37 38 38 40 42 44 44 43 41 41 43 43 42 42
72 71 71 70 69 68 67 65 63 62 60 58 57 56 55 55 54 53 52 50 47 46 44 43 41 37 34 35 35 34 34 34 32 31 30 28 27 27 27 28 30 32 34 34 35 35 36 37 37 37 38 38 38 39 38 37 36 36 35 36 36 36 37 38 38 38 37 36 36 37 37 37 37 38 39 41 43 44 42 40 41 43 43 43 41
70 70 69 68 66 65 64 62 60 58 56 55 54 53 52 52 52 52 51 49 46 44 41 40 38 33 30 31 31 30 32 34 33 31 30 28 26 26 26 27 30 31 33 34 34 34 35 36 36 36 36 37 36 36 36 35 35 35 35 35 35 36 37 38 37 37 36 35 36 36 36 36 36 37 39 40 42 42 41 40 41 42 43 42 40
69 68 66 65 63 62 60 59 57 55 53 51 50 51 51 51 50 50 49 49 47 45 41 39 36 32 28 28 28 26 27 30 32 31 29 28 27 26 26 27 29 31 32 33 33 33 34 34 35 35 35 35 35 35 35 35 35 35 35 35 35 36 37 37 36 35 35 35 35 35 35 35 36 37 38 40 41 41 40 40 41 41 41 40 39
66 65 63 62 61 59 57 56 54 53 51 49 47 46 48 50 51 50 48 47 47 46 43 40 37 33 28 27 27 25 23 25 28 29 28 27 26 26 26 26 28 30 31 31 32 32 32 33 34 34 34 33 34 34 35 35 35 35 35 35 36 36 37 37 35 35 35 34 34 34 34 35 35 36 37 38 39 39 39 40 40 40 40 39 39
63 62 61 59 58 57 56 54 53 51 50 48 46 44 43 44 48 50 50 46 45 45 43 41 38 35 30 27 26 26 24 24 25 26 26 25 25 26 25 26 27 28 29 30 31 31 31 32 32 32 32 33 34 35 35 35 35 35 35 35 36 36 37 36 35 35 34 33 33 33 33 34 34 35 36 37 37 38 39 39 40 40 40 40 39
61 60 59 57 56 56 55 53 52 50 48 47 45 44 41 39 40 44 47 47 45 43 42 40 38 35 32 28 26 25 24 23 24 25 25 24 24 24 25 25 26 27 28 29 29 30 31 31 31 30 31 32 34 34 35 34 34 34 35 36 36 36 36 36 36 35 35 33 33 33 33 33 33 35 36 37 38 39 39 39 39 39 40 39 39
60 59 58 56 55 54 54 52 51 49 48 46 44 43 41 39 37 37 39 42 44 43 42 40 37 34 31 29 27 25 23 22 22 24 24 23 23 23 23 24 25 25 26 27 28 29 30 30 30 30 31 32 33 33 33 33 34 34 35 35 36 36 36 36 36 36 35 34 33 33 33 33 34 35 37 38 39 39 39 39 39 39 39 39 38
59 58 57 56 54 53 52 51 50 48 47 45 43 42 41 40 38 36 35 35 37 39 41 40 38 34 31 29 27 26 24 22 21 21 23 23 22 22 22 22 23 24 25 26 28 29 30 30 30 30 31 32 33 33 32 33 34 34 35 36 36 36 36 36 36 36 35 33 33 33 33 34 36 36 37 39 39 39 39 39 39 39 38 38 38
58 57 56 55 54 52 51 50 49 47 45 44 43 42 40 39 38 37 35 33 32 33 34 36 37 35 31 28 27 26 25 23 21 20 21 22 22 22 22 22 22 23 25 26 27 29 30 30 30 31 32 32 32 32 32 33 34 35 35 36 36 36 36 36 36 35 34 33 33 33 33 35 36 37 38 39 40 40 39 39 39 39 38 37 37
58 56 55 54 52 51 49 48 47 46 44 43 42 41 40 38 37 36 35 34 32 31 30 31 33 33 31 27 26 25 24 23 22 21 21 21 22 21 21 21 22 22 24 26 27 28 29 30 31 32 33 33 32 31 31 32 33 34 35 36 36 36 35 35 35 35 34 33 33 34 35 36 37 38 39 40 40 40 40 40 40 39 38 37 37
57 56 55 53 51 49 47 46 45 44 43 42 41 40 39 38 37 35 34 33 32 31 30 29 29 30 30 28 26 24 22 21 21 21 21 21 21 21 21 21 21 22 23 25 27 28 28 29 31 32 33 33 32 32 31 32 32 33 34 35 35 35 34 34 34 34 34 33 34 34 36 37 39 39 40 41 41 41 41 40 39 39 38 37 37
57 56 55 53 51 49 47 45 44 43 42 41 40 39 38 36 35 34 33 32 31 30 29 28 27 27 27 27 26 25 23 21 20 19 20 21 21 21 20 20 21 22 23 25 27 28 28 28 30 31 31 32 32 32 32 33 33 33 33 34 34 34 34 32 32 33 33 33 34 35 36 38 39 40 40 41 42 41 40 39 38 38 38 37 36
55 54 53 52 51 49 47 44 42 41 40 40 39 37 36 35 34 33 32 31 30 30 29 28 27 26 25 25 25 25 24 22 20 19 19 20 20 20 20 20 21 22 23 24 26 28 28 29 29 30 30 31 31 31 32 33 33 34 34 34 34 34 33 32 31 32 32 33 34 35 37 38 39 40 40 41 41 39 38 37 37 37 37 36 35
54 52 51 50 49 48 46 43 42 40 39 38 37 36 35 33 32 32 31 30 29 29 28 28 26 25 24 24 23 24 24 23 21 19 18 19 19 20 20 20 21 22 23 24 26 28 29 29 30 30 31 31 31 31 31 32 33 33 33 33 33 33 33 32 32 32 33 34 35 37 38 39 39 40 40 40 39 38 36 36 36 36 35 34 34
54 52 50 49 48 47 45 42 40 39 38 37 36 35 34 32 31 30 29 29 28 27 27 27 26 25 24 23 22 22 22 23 22 21 19 18 18 19 19 20 20 22 23 25 26 27 29 29 30 31 31 31 31 31 31 31 32 32 32 32 32 32 33 33 33 34 35 36 37 38 39 39 39 40 40 39 38 37 36 35 35 34 34 33 33
56 53 50 48 47 46 44 42 39 38 37 36 35 34 33 32 30 29 28 28 27 26 26 26 26 25 24 23 22 21 20 21 22 21 20 19 18 18 19 19 20 22 23 25 26 27 29 30 30 31 31 31 31 31 31 32 32 32 32 32 32 32 33 33 34 35 37 38 39 39 39 40 40 40 40 39 38 37 36 35 34 33 33 33 33
57 54 52 50 48 46 45 42 40 38 36 35 34 34 32 31 30 29 27 27 26 25 25 25 25 25 24 23 21 20 19 20 20 20 20 20 19 18 18 19 20 21 23 25 26 28 29 30 31 31 31 31 31 31 32 32 32 32 32 32 33 33 34 35 36 37 38 38 39 39 39 39 39 39 39 38 37 36 35 34 33 33 33 33 33
58 56 54 51 49 47 46 43 41 38 36 35 34 33 32 30 29 28 27 26 25 25 24 24 23 23 23 23 22 20 19 18 19 19 20 20 19 18 18 18 19 21 23 25 26 28 29 30 31 31 31 31 31 31 31 31 32 32 32 33 34 34 35 36 37 37 38 38 38 39 39 39 39 38 38 37 37 36 35 34 34 34 33 33 33
59 57 56 53 51 49 46 44 42 39 37 35 34 33 32 31 29 28 27 26 25 24 24 24 23 22 22 22 22 21 19 18 18 18 19 19 19 18 18 18 19 20 22 24 26 28 29 30 31 31 31 31 31 31 31 31 31 32 33 33 34 35 35 36 37 37 37 37 38 38 38 38 38 37 37 37 36 36 35 34 34 34 33 33 33
60 58 57 55 53 50 48 46 43 40 38 35 34 33 32 31 30 28 27 26 24 24 23 23 23 22 22 21 21 21 20 19 18 18 18 18 18 18 18 18 18 20 22 24 26 28 29 30 31 32 32 31 31 31 30 30 31 32 33 33 34 35 36 36 36 37 37 37 37 37 37 37 37 37 37 36 35 35 34 34 33 33 33 33 33
60 59 58 56 54 52 50 48 45 42 39 36 34 33 32 31 30 28 27 26 25 23 23 23 23 23 22 21 21 20 20 19 18 18 18 18 18 18 18 18 18 19 21 23 26 27 29 30 31 32 32 32 31 31 31 30 31 31 32 33 34 35 36 36 36 36 36 36 36 36 36 36 36 36 36 35 35 34 34 33 33 32 32 32 33
62 60 59 58 56 54 52 50 47 44 41 38 35 33 32 32 31 29 27 26 25 24 23 22 22 23 22 21 20 20 20 19 19 18 18 18 18 18 18 18 18 19 20 23 25 27 29 30 31 32 32 32 32 31 31 31 31 31 32 32 33 34 35 35 36 36 36 36 36 36 36 36 36 35 35 35 34 34 33 33 32 32 32 32 33
64 62 61 59 58 56 54 52 50 47 44 40 37 35 33 32 31 30 29 27 25 24 23 22 22 22 22 22 21 19 19 19 19 19 18 18 18 18 18 18 18 18 20 22 24 27 28 30 31 32 33 33 33 32 32 32 32 32 32 32 33 33 34 35 35 35 35 36 36 36 35 35 35 35 35 34 34 33 33 33 32 32 32 32 33
65 64 63 61 60 58 56 55 53 50 47 44 40 37 35 33 31 30 29 28 27 25 24 22 21 22 22 22 21 20 19 18 18 19 18 18 18 18 18 18 18 18 19 21 23 26 28 29 31 32 33 34 33 33 33 32 32 32 32 32 33 33 33 34 34 35 35 35 35 35 35 35 34 35 34 34 34 33 33 32 32 32 32 32 33
66 66 65 64 62 60 58 57 55 53 50 47 44 41 38 35 33 31 30 29 28 27 26 24 22 21 22 22 22 21 19 18 18 18 18 18 18 18 18 18 18 18 19 20 23 25 27 29 30 32 33 34 34 34 34 33 33 33 33 33 33 33 33 33 34 34 35 35 35 35 35 35 34 34 34 34 34 34 33 33 32 32 32 32 33
Wind_Direction
286 284 283 282 282 283 284 285 286 287 288 289 290 291 291 292 293 293 293 294 294 294 295 295 295 294 294 293 293 293 293 293 293 292 292 292 291 289 287 285 284 283 282 281 280 277 275 273 270 267 264 262 260 258 257 257 257 257 257 258 258 258 258 259 260 259 258 259 259 260 260 260 261 262 262 262 262 262 262 261 260 260 259 258 258
282 281 281 281 282 283 285 286 287 288 289 289 290 291 291 292 293 293 294 294 294 295 295 295 294 294 294 293 293 294 294 294 294 293 293 292 290 288 287 286 285 284 283 281 279 276 273 271 269 266 263 262 260 259 258 257 257 257 257 257 257 257 258 258 258 258 257 258 258 259 260 261 261 262 262 263 263 263 262 262 261 261 260 259 259
279 279 280 281 283 284 286 287 288 288 289 289 290 291 292 293 293 294 294 295 295 295 295 295 294 294 294 294 294 294 294 294 294 293 293 291 289 288 287 286 286 285 283 281 277 274 271 269 267 265 262 261 260 259 258 257 257 257 257 257 257 257 257 257 257 257 257 257 258 259 260 261 262 262 262 262 263 263 263 262 261 261 260 260 260
279 280 281 283 284 286 287 287 288 288 289 290 291 292 293 294 294 295 295 295 296 295 295 295 294 294 294 294 294 294 294 294 294 293 292 291 290 289 288 287 286 284 281 278 275 271 268 267 265 264 262 261 260 259 259 258 257 257 257 257 257 256 256 257 257 257 257 257 258 259 260 261 261 261 262 262 263 263 263 262 262 262 262 262 261
280 281 282 284 285 286 287 287 288 289 290 291 292 293 294 294 295 295 296 296 295 295 295 294 294 294 294 294 295 295 294 294 293 292 291 291 290 289 288 286 284 282 279 276 272 269 266 265 264 262 262 261 260 259 259 258 257 257 257 256 256 256 256 256 257 257 257 257 258 259 260 260 260 261 261 262 262 263 264 264 264 264 264 264 262
281 282 284 285 286 287 288 288 289 290 291 292 293 294 294 295 295 296 295 295 295 294 294 294 294 294 295 295 295 295 294 293 293 292 291 290 290 289 287 284 282 279 276 273 269 267 265 263 262 261 261 261 260 259 258 258 257 257 257 256 256 256 256 256 257 257 258 258 258 258 259 260 260 260 261 262 262 263 265 266 266 266 265 263 260
282 284 285 286 287 288 288 289 290 291 291 292 293 294 295 295 296 295 295 295 295 294 294 294 295 295 295 295 295 295 294 293 292 292 291 290 289 287 284 281 278 275 272 269 267 265 263 262 261 260 260 260 259 259 258 257 257 256 256 256 256 256 256 256 257 257 258 258 258 259 259 259 260 260 261 262 263 264 265 265 265 264 260 258 255
284 285 286 287 287 288 289 289 290 291 292 293 294 295 295 296 296 295 295 295 295 295 295 295 296 296 296 296 295 294 294 293 292 292 291 289 287 284 281 278 274 271 268 266 265 264 263 261 260 260 259 259 259 258 257 257 256 256 256 256 255 255 256 256 257 257 258 258 258 258 259 259 260 260 261 262 262 263 263 261 260 259 254 251 248
285 286 287 287 288 288 289 290 291 292 293 294 295 296 296 296 296 295 295 295 295 296 296 297 297 297 296 296 295 295 294 294 293 292 290 288 284 281 277 274 271 268 265 263 262 262 261 260 260 259 259 259 258 258 257 256 256 256 255 255 255 256 256 256 256 257 257 258 258 258 258 258 259 260 260 259 258 258 258 256 256 256 250 246 242
286 287 287 288 288 289 290 291 292 293 294 295 296 296 296 296 296 296 296 296 296 297 297 298 298 297 297 296 296 295 295 294 293 291 289 285 282 278 274 270 267 265 263 261 260 260 259 258 258 258 257 257 257 257 257 256 256 255 255 255 255 255 255 255 255 256 256 256 257 257 257 257 258 258 257 255 253 253 254 253 253 252 247 243 240
287 287 288 289 290 291 292 293 294 295 296 296 296 296 296 296 296 296 297 297 298 298 298 298 298 298 297 297 296 296 295 294 292 290 287 283 279 275 271 268 265 262 261 259 258 258 257 257 256 256 256 256 256 256 255 255 255 254 254 253 253 253 253 254 254 254 255 255 256 256 257 257 257 255 253 251 250 251 252 250 249 248 245 242 240
288 289 290 291 292 293 294 295 296 296 297 297 297 296 296 296 297 297 298 298 299 299 299 299 299 298 298 298 297 297 295 293 291 288 285 281 277 273 270 266 263 260 259 258 257 256 256 255 255 255 255 255 255 254 254 254 253 253 252 252 251 251 252 252 252 253 254 254 254 255 256 255 254 252 250 248 248 250 251 248 247 246 243 241 240
290 291 292 293 294 295 296 296 297 297 297 297 297 297 297 298 298 299 299 300 300 300 300 300 300 299 299 298 297 296 294 292 290 287 284 280 275 271 268 265 262 259 257 257 256 255 255 254 254 254 254 254 254 253 253 253 252 252 251 251 250 250 251 251 252 252 253 253 252 254 254 253 251 249 247 245 247 248 248 248 247 245 242 242 242
293 294 295 295 296 296 297 297 297 297 298 298 298 299 299 300 300 301 301 301 301 301 301 301 300 300 299 298 297 295 293 291 289 286 283 280 275 271 266 263 261 258 256 256 255 254 254 254 253 253 252 253 253 253 252 252 252 251 251 250 250 250 250 251 251 252 251 250 251 252 251 250 247 244 243 245 246 245 244 245 246 243 242 243 243
296 296 297 297 297 298 298 298 298 299 299 299 300 300 301 301 302 302 302 302 302 302 302 301 300 299 298 297 295 294 292 290 288 285 283 279 276 271 266 262 260 258 255 254 254 253 253 252 252 252 252 252 252 252 251 251 251 250 250 250 250 250 250 250 250 250 248 248 249 250 248 247 244 241 241 244 245 242 241 243 245 244 245 246 245
298 298 298 298 299 299 299 299 300 300 300 301 301 302 302 302 302 302 303 303 303 303 302 301 300 299 297 296 295 294 292 290 287 285 282 278 275 272 267 262 259 258 255 254 253 253 252 251 251 251 251 251 251 251 251 250 249 249 249 249 249 249 249 249 249 247 246 246 247 247 246 244 242 240 240 242 242 240 240 242 245 247 248 247 245
300 300 300 300 300 301 301 301 301 301 302 302 302 303 303 303 303 303 303 304 304 303 302 301 300 299 297 296 295 294 292 289 287 284 281 278 275 272 267 261 258 257 255 254 252 252 251 251 250 250 250 250 250 250 250 249 248 248 249 248 248 248 248 247 246 244 244 246 246 245 243 241 241 241 241 241 241 240 241 244 247 249 248 246 243
302 302 302 302 302 302 302 302 302 303 303 303 303 303 303 304 304 304 304 304 304 303 301 300 300 299 298 297 296 294 292 289 286 283 279 276 274 272 267 261 257 256 255 253 252 250 250 250 249 249 249 249 249 249 249 249 248 247 248 247 247 247 247 245 244 242 243 244 245 244 242 239 240 242 243 243 243 242 243 245 246 247 246 243 240
303 303 303 303 303 303 303 303 304 304 304 304 304 304 305 305 305 305 305 305 304 303 301 300 300 299 299 298 297 295 293 290 286 282 277 274 272 271 266 260 256 255 254 253 251 249 248 248 248 248 247 248 248 249 249 249 248 246 247 246 246 246 245 243 242 241 242 243 243 244 241 238 239 241 243 244 244 243 243 243 243 244 243 240 236
304 304 304 304 304 304 304 305 305 305 305 305 306 306 306 306 306 306 305 305 304 303 302 301 301 300 300 299 298 296 294 291 286 281 275 271 270 269 265 259 255 253 253 252 250 248 247 247 247 247 247 247 247 248 249 249 247 245 245 245 245 244 242 241 240 240 241 242 242 242 241 239 239 241 243 244 244 242 241 240 240 241 240 237 234
305 305 305 305 305 306 306 306 306 306 306 306 307 307 307 307 306 306 305 305 304 303 302 302 302 302 301 300 299 298 296 292 287 280 273 269 267 266 263 258 253 251 251 251 250 248 246 246 246 246 246 246 247 247 248 248 247 245 244 243 243 242 240 239 239 239 240 241 241 241 241 240 240 241 242 244 243 240 238 239 239 239 237 234 231
306 306 306 307 307 307 307 307 307 307 307 307 308 308 308 307 307 306 306 305 304 303 303 303 303 304 303 302 300 299 297 293 288 281 273 267 265 264 262 257 252 249 248 249 249 247 245 245 244 245 245 245 246 246 247 247 246 245 243 243 242 240 238 237 237 238 239 240 240 239 239 239 239 240 241 242 241 238 237 238 237 234 232 230 227
307 307 308 308 308 308 308 308 308 308 308 309 309 308 308 308 307 307 306 306 305 305 305 305 305 306 306 304 301 299 297 293 289 283 276 269 265 263 260 256 252 249 247 247 248 246 245 244 243 244 244 244 245 245 245 245 244 243 243 243 242 239 237 236 236 237 238 238 238 237 237 238 238 239 240 240 239 236 236 235 232 229 228 226 225
308 308 308 308 309 309 309 309 309 309 309 309 309 309 309 308 307 307 307 307 307 307 307 307 307 308 307 303 300 298 296 293 289 285 279 273 268 264 260 256 251 248 247 247 247 246 244 243 243 243 243 243 244 244 243 243 242 241 241 241 239 236 235 235 235 237 237 236 235 235 236 237 238 238 238 238 236 234 232 231 229 227 226 225 224
309 308 309 309 308 309 309 309 309 309 309 309 309 309 308 308 307 307 307 308 308 308 308 308 309 310 307 301 298 297 295 292 290 286 281 276 272 267 262 257 252 248 247 247 246 245 244 243 242 243 243 243 243 243 242 242 241 240 238 236 234 234 234 232 232 235 236 234 233 234 235 236 237 236 236 235 233 231 230 229 227 225 224 224 225
309 309 309 308 308 308 308 309 309 309 309 309 309 309 309 308 308 307 308 309 309 309 309 309 311 311 307 301 298 297 294 292 290 287 283 278 274 269 264 258 252 248 246 247 246 245 244 243 242 242 242 242 241 241 242 241 239 237 234 232 232 232 232 230 231 233 234 231 231 233 234 235 235 234 233 233 231 230 229 228 226 225 224 224 224
309 308 308 308 308 308 309 309 309 309 309 309 309 309 309 309 309 309 309 310 309 309 309 310 312 311 305 298 297 297 295 292 291 289 286 281 275 270 265 258 252 246 244 245 246 245 244 243 242 241 241 241 241 240 240 238 235 233 230 230 231 230 228 228 229 230 231 230 230 231 233 233 233 232 231 231 230 228 228 227 226 225 224 224 224
309 309 309 309 309 309 309 309 309 309 309 309 309 309 309 309 309 310 310 310 309 308 308 310 312 311 302 294 293 293 291 290 289 287 286 283 278 271 264 256 249 243 241 242 243 244 244 243 241 240 240 240 239 238 236 233 230 228 227 229 229 226 224 226 228 228 228 229 230 232 232 231 230 230 229 229 228 227 226 226 225 225 224 224 225
311 310 310 310 310 310 310 310 309 309 309 309 310 310 310 310 309 310 311 311 310 309 309 311 313 312 303 295 291 287 285 286 286 286 284 282 277 271 263 256 249 242 239 239 241 242 242 241 240 239 238 237 235 233 231 227 225 225 226 227 225 222 222 225 226 227 229 230 230 231 230 229 228 227 227 226 226 225 225 225 225 225 224 224 225
312 312 311 311 311 310 310 310 309 309 309 309 310 311 312 312 311 311 312 312 311 311 311 313 315 314 309 302 297 290 282 281 283 284 283 281 277 271 264 257 250 243 239 238 239 240 239 239 239 238 236 233 231 229 226 223 222 223 224 224 221 219 220 223 224 226 228 230 229 228 227 226 226 225 224 224 224 223 224 225 225 225 225 225 226
313 313 312 312 311 311 310 310 310 310 310 310 310 310 311 312 312 312 312 313 312 311 311 313 315 315 312 306 303 298 290 285 283 282 281 279 276 271 265 258 251 244 240 239 238 237 237 236 235 234 231 229 227 224 222 220 220 222 222 220 218 218 220 222 223 225 226 227 226 225 224 224 224 223 222 222 222 222 222 223 224 225 226 226 227
315 314 313 312 312 311 311 311 311 311 311 311 311 310 310 310 310 311 311 312 311 310 310 311 313 314 311 307 303 299 294 289 286 282 280 278 275 271 265 259 253 246 241 238 236 234 233 232 230 227 225 224 223 221 220 219 220 220 219 217 216 218 220 222 223 224 224 223 222 221 221 221 221 221 220 220 219 219 220 221 223 225 226 227 227
316 315 314 313 312 312 311 311 312 311 311 311 311 310 309 308 308 307 308 310 310 309 309 309 311 312 310 306 303 299 295 291 287 283 280 278 274 270 265 259 253 246 240 237 234 231 229 227 224 221 220 220 220 219 219 220 219 218 216 215 216 218 220 222 223 223 223 222 220 219 218 217 217 218 218 218 218 218 219 220 222 224 226 227 227
319 318 316 315 314 313 312 312 312 312 312 312 311 310 310 309 308 306 305 306 307 307 308 309 310 311 309 305 302 300 298 294 289 284 281 278 274 269 264 258 252 246 240 235 232 229 226 223 220 216 215 216 216 216 217 218 218 216 214 214 216 218 221 223 223 222 222 221 220 218 217 216 216 216 217 218 218 218 219 220 222 224 226 227 227
322 321 319 318 316 314 313 312 312 312 312 312 311 311 310 309 308 307 305 304 303 303 303 305 307 308 307 303 300 300 300 298 293 287 282 279 275 270 264 257 251 245 239 233 230 227 224 220 216 214 213 213 213 213 214 215 216 215 214 215 216 219 222 222 222 221 221 220 218 216 215 216 216 216 217 218 218 218 219 220 222 224 225 225 225
325 324 323 321 319 316 314 313 312 312 312 311 311 310 310 309 308 307 306 305 304 303 302 302 304 305 305 301 297 295 295 295 293 289 284 279 275 270 264 256 250 244 238 232 228 225 223 219 215 212 211 210 210 211 212 213 214 214 214 215 217 220 222 222 221 220 220 219 217 215 214 215 216 216 217 218 218 218 218 220 221 223 223 223 223
327 326 325 324 322 319 316 314 312 312 312 312 311 311 311 310 309 308 307 306 305 304 303 302 304 305 305 302 298 295 292 291 289 287 284 280 276 270 264 256 249 243 238 232 226 223 221 219 215 213 211 210 209 209 210 211 213 214 215 216 218 220 222 222 221 220 220 219 217 215 214 215 216 217 218 219 220 219 220 220 221 222 222 221 221
330 328 327 326 325 323 319 316 314 313 313 312 312 312 311 310 309 308 307 306 305 304 303 302 302 304 304 302 299 296 294 292 288 285 283 280 276 270 263 256 248 241 237 232 227 222 219 217 216 214 213 212 210 209 209 209 210 212 214 216 218 220 222 222 222 221 219 218 217 215 215 216 218 219 220 221 221 222 222 221 222 222 221 220 220
333 331 329 328 327 326 323 319 316 314 314 313 313 312 312 311 309 308 307 306 305 305 303 302 302 303 303 301 298 296 294 292 289 285 282 279 275 270 263 255 247 240 235 232 228 223 218 215 214 213 213 213 213 212 211 210 210 212 213 215 217 219 220 221 221 219 218 217 216 215 215 217 219 220 222 223 224 224 223 222 222 222 221 219 218
338 335 332 331 330 329 326 323 319 316 315 314 314 313 313 312 310 308 307 305 305 304 303 302 301 302 303 301 298 295 293 292 289 286 282 279 275 270 263 256 247 239 234 231 228 224 219 215 212 212 212 212 212 213 213 213 213 213 214 215 217 218 218 218 217 216 215 215 215 215 216 217 219 221 223 224 225 224 223 222 222 222 220 218 217
342 340 337 334 333 332 330 327 322 318 316 315 314 314 314 313 311 309 307 305 304 304 303 302 300 300 301 301 297 293 290 289 288 286 283 279 275 270 263 256 248 239 233 229 227 224 220 216 213 211 211 211 211 212 213 213 213 214 214 215 217 218 218 216 215 214 213 213 214 214 215 216 218 220 222 223 224 224 223 222 221 220 218 216 215
347 344 342 339 337 335 334 331 327 322 319 317 316 315 315 315 313 311 308 305 303 302 302 301 300 299 300 300 298 293 288 285 285 284 282 279 276 271 264 256 249 241 233 228 226 224 220 216 214 212 211 211 211 212 212 213 213 213 213 214 215 216 217 216 214 214 214 214 214 214 215 215 217 218 220 222 223 223 222 222 220 218 216 214 213
349 348 346 344 341 339 338 335 332 327 323 320 317 316 316 316 315 313 310 306 303 301 300 300 299 298 298 299 298 294 288 284 282 281 279 278 275 271 265 257 250 242 234 228 224 223 221 217 214 213 212 212 212 212 212 212 213 212 212 212 212 213 214 214 214 214 214 215 215 215 215 216 217 218 220 221 222 222 221 220 218 216 214 213 212
352 351 350 348 346 343 341 339 336 332 328 323 320 318 317 317 316 314 312 308 304 301 299 298 297 297 297 298 298 295 289 283 279 278 277 276 274 271 265 258 250 243 236 229 224 222 221 218 214 213 213 213 213 213 213 212 212 211 211 211 212 212 213 214 214 215 215 216 216 216 215 216 216 218 219 220 221 221 220 218 216 215 213 211 211
354 353 353 352 350 347 345 343 340 337 332 328 323 320 319 318 317 316 314 310 306 302 298 297 296 295 295 295 296 295 291 285 279 276 274 273 272 270 266 259 250 243 237 231 224 221 220 218 215 213 214 214 214 214 214 213 212 211 211 211 212 212 213 214 215 215 216 216 217 216 216 216 216 217 218 220 220 220 219 217 215 214 212 210 211
356 355 355 354 353 351 349 347 344 341 337 332 327 323 320 319 318 317 315 312 308 303 298 296 295 294 293 293 294 294 292 287 281 276 273 272 270 269 266 261 252 244 238 232 226 221 219 218 216 214 214 214 214 214 215 214 214 212 211 211 212 213 213 214 215 216 216 216 216 216 216 216 216 217 218 220 220 219 217 216 214 212 210 210 210
358 357 357 356 356 355 353 351 349 346 342 337 332 327 323 320 318 317 315 313 310 305 299 295 292 292 291 290 291 291 290 287 282 276 272 270 269 267 265 261 254 245 238 232 228 223 219 217 216 214 214 214 214 214 214 214 214 214 213 212 212 213 213 214 215 215 216 215 215 215 215 215 216 217 218 219 219 218 216 214 212 210 209 209 210
1 360 359 358 358 357 356 354 352 350 347 343 337 332 326 322 319 317 314 313 310 307 302 296 291 289 289 288 288 288 288 286 281 276 271 268 267 265 263 261 256 248 239 233 229 224 221 217 215 214 213 213 213 214 214 214 214 214 214 213 213 213 214 214 214 214 214 214 214 215 214 215 215 217 218 219 218 217 215 213 211 209 208 208 209
3 2 1 0 359 359 358 357 356 354 351 348 343 337 331 326 322 318 315 312 310 307 304 298 292 288 286 286 285 285 285 283 281 275 270 266 264 263 261 259 256 250 242 235 229 225 222 219 215 213 213 212 213 213 213 214 214 214 214 214 214 214 214 214 214 214 214 213 213 214 214 214 215 216 217 218 217 216 214 212 210 208 207 207 208
4 4 3 2 1 0 359 359 358 357 355 352 348 344 338 332 326 322 317 314 311 308 305 301 294 287 284 283 282 282 281 281 279 275 270 265 262 261 259 256 254 251 245 238 231 226 222 219 216 213 212 212 212 213 213 213 213 213 213 213 214 214 214 215 215 215 214 213 212 212 213 213 214 216 216 216 215 214 213 211 210 208 207 207 208
5 5 4 4 3 2 1 0 359 358 357 355 353 349 344 339 333 327 321 317 313 309 306 302 297 290 283 280 280 279 278 277 276 274 270 264 259 258 257 255 252 249 245 240 233 227 223 220 217 214 212 211 212 212 212 212 212 213 213 213 213 213 213 214 214 214 214 213 212 212 212 212 213 215 215 215 213 212 211 210 210 209 207 207 208
Height
5443 5441 5438 5436 5433 5431 5428 5425 5422 5419 5416 5412 5409 5406 5403 5400 5397 5394 5391 5387 5384 5381 5377 5374 5370 5367 5364 5360 5357 5353 5350 5347 5344 5340 5338 5335 5331 5327 5325 5321 5318 5318 5316 5314 5312 5307 5305 5306 5306 5306 5305 5305 5308 5310 5312 5314 5313 5314 5315 5317 5320 5323 5326 5326 5331 5341 5342 5341 5346 5347 5347 5351 5352 5353 5353 5352 5354 5355 5356 5360 5363 5366 5369 5372 5376
5434 5431 5429 5426 5424 5421 5418 5415 5411 5408 5405 5402 5399 5396 5392 5389 5386 5383 5379 5376 5372 5369 5365 5362 5358 5354 5351 5347 5343 5340 5336 5333 5329 5326 5323 5321 5318 5313 5310 5307 5304 5303 5300 5299 5297 5293 5291 5292 5293 5293 5291 5292 5296 5297 5299 5302 5301 5302 5303 5305 5308 5311 5313 5314 5318 5325 5329 5330 5333 5334 5334 5337 5340 5341 5340 5339 5339 5340 5342 5346 5349 5352 5354 5357 5360
5425 5422 5419 5416 5413 5410 5407 5404 5401 5397 5394 5391 5388 5384 5381 5377 5374 5370 5367 5363 5360 5356 5352 5349 5346 5342 5338 5334 5330 5326 5323 5319 5315 5311 5308 5305 5303 5300 5296 5293 5290 5288 5285 5284 5282 5279 5278 5279 5280 5281 5279 5280 5284 5285 5287 5289 5289 5290 5292 5293 5297 5299 5301 5302 5306 5311 5316 5318 5320 5322 5322 5324 5328 5329 5328 5326 5325 5325 5329 5332 5334 5337 5340 5342 5345
5415 5412 5409 5406 5402 5400 5397 5394 5390 5387 5384 5380 5377 5373 5369 5365 5361 5358 5354 5351 5347 5343 5339 5336 5332 5329 5325 5321 5317 5313 5309 5305 5301 5297 5293 5289 5287 5285 5282 5278 5275 5273 5270 5268 5267 5266 5265 5267 5268 5268 5267 5269 5272 5274 5275 5277 5278 5279 5281 5283 5285 5288 5289 5291 5294 5298 5302 5306 5309 5311 5311 5313 5316 5316 5315 5314 5313 5312 5314 5317 5320 5323 5325 5327 5330
5404 5401 5398 5395 5392 5389 5386 5383 5379 5376 5372 5369 5365 5361 5357 5353 5349 5345 5342 5338 5335 5331 5327 5323 5319 5315 5311 5308 5304 5300 5295 5291 5288 5284 5279 5275 5271 5268 5265 5263 5260 5258 5256 5254 5254 5253 5253 5255 5257 5257 5256 5258 5261 5263 5264 5265 5267 5268 5270 5272 5274 5276 5278 5280 5283 5285 5289 5295 5298 5299 5300 5301 5304 5304 5303 5302 5301 5300 5300 5302 5306 5309 5311 5312 5314
5394 5391 5387 5384 5381 5378 5375 5371 5368 5364 5360 5357 5353 5350 5345 5341 5337 5333 5329 5326 5322 5318 5314 5310 5305 5302 5298 5293 5289 5286 5281 5277 5273 5269 5265 5260 5256 5253 5249 5247 5245 5243 5242 5241 5241 5241 5242 5244 5245 5246 5246 5248 5250 5252 5253 5254 5256 5258 5260 5262 5263 5265 5267 5269 5272 5274 5278 5283 5286 5288 5289 5290 5291 5293 5292 5290 5289 5288 5288 5289 5292 5294 5296 5297 5299
5383 5380 5377 5374 5371 5368 5364 5360 5356 5353 5349 5346 5342 5338 5334 5329 5325 5321 5317 5313 5309 5305 5301 5297 5292 5287 5284 5279 5275 5271 5267 5263 5258 5254 5250 5245 5241 5237 5234 5232 5231 5230 5229 5229 5229 5230 5231 5232 5234 5235 5236 5237 5239 5241 5242 5243 5245 5247 5250 5251 5253 5254 5256 5259 5261 5263 5267 5271 5274 5277 5279 5279 5280 5282 5281 5279 5278 5278 5278 5278 5279 5281 5283 5286 5288
5373 5370 5366 5363 5360 5357 5354 5350 5346 5342 5338 5334 5330 5326 5321 5317 5312 5308 5303 5299 5295 5291 5287 5283 5278 5273 5269 5264 5260 5256 5252 5248 5243 5238 5234 5230 5225 5222 5219 5218 5217 5217 5217 5218 5218 5219 5220 5222 5223 5225 5225 5227 5229 5230 5232 5233 5235 5237 5239 5241 5242 5244 5247 5249 5251 5253 5256 5260 5263 5266 5267 5268 5270 5271 5270 5268 5268 5269 5268 5267 5268 5271 5274 5278 5281
5363 5360 5356 5353 5350 5347 5343 5339 5335 5330 5326 5322 5318 5313 5308 5304 5299 5294 5290 5286 5281 5277 5272 5267 5263 5259 5254 5249 5244 5240 5236 5232 5227 5222 5217 5213 5210 5207 5206 5204 5204 5205 5206 5207 5208 5209 5210 5212 5214 5215 5216 5217 5219 5220 5222 5223 5225 5227 5229 5230 5232 5234 5237 5239 5241 5243 5246 5249 5252 5254 5256 5258 5260 5260 5259 5258 5258 5259 5257 5257 5260 5263 5266 5271 5274
5353 5350 5346 5342 5339 5336 5332 5328 5323 5318 5313 5309 5304 5300 5295 5290 5285 5281 5277 5272 5267 5262 5258 5252 5247 5243 5239 5235 5229 5224 5219 5215 5210 5205 5200 5197 5194 5193 5192 5192 5192 5192 5194 5196 5197 5199 5200 5202 5204 5205 5207 5208 5209 5211 5212 5214 5215 5217 5219 5220 5222 5225 5227 5229 5232 5234 5236 5239 5241 5244 5246 5249 5250 5250 5249 5248 5249 5249 5249 5251 5254 5257 5260 5265 5268
5343 5339 5335 5332 5328 5324 5320 5315 5310 5305 5300 5296 5291 5286 5281 5277 5272 5268 5264 5259 5254 5249 5243 5238 5233 5227 5223 5219 5214 5209 5204 5198 5193 5189 5185 5181 5178 5178 5179 5179 5180 5181 5182 5185 5187 5189 5190 5192 5194 5196 5197 5199 5200 5201 5203 5204 5205 5207 5209 5211 5213 5215 5217 5220 5222 5224 5226 5229 5232 5234 5237 5239 5240 5239 5239 5239 5241 5242 5242 5244 5248 5252 5255 5259 5261
5333 5329 5324 5320 5316 5311 5307 5302 5297 5292 5287 5283 5278 5273 5269 5264 5259 5255 5251 5246 5241 5235 5229 5224 5218 5212 5206 5202 5198 5193 5188 5182 5177 5174 5171 5167 5164 5163 5165 5167 5168 5169 5171 5173 5176 5178 5180 5183 5185 5187 5188 5190 5191 5192 5193 5194 5196 5197 5199 5201 5204 5206 5208 5211 5213 5215 5217 5220 5222 5225 5228 5229 5230 5230 5230 5232 5233 5234 5235 5238 5242 5247 5250 5253 5255
5322 5317 5312 5307 5303 5299 5294 5290 5285 5280 5275 5270 5265 5260 5256 5251 5246 5241 5238 5232 5226 5221 5215 5209 5203 5196 5190 5186 5182 5177 5172 5167 5163 5160 5158 5155 5152 5150 5152 5154 5156 5158 5161 5163 5165 5168 5170 5173 5175 5177 5179 5180 5181 5182 5184 5185 5186 5188 5190 5192 5195 5198 5200 5202 5204 5206 5209 5211 5214 5217 5218 5220 5221 5221 5222 5224 5226 5228 5230 5233 5236 5240 5243 5246 5248
5310 5305 5300 5295 5291 5286 5282 5278 5273 5268 5263 5258 5253 5247 5242 5237 5232 5227 5223 5218 5212 5206 5200 5194 5188 5181 5175 5170 5167 5163 5158 5153 5150 5148 5145 5143 5140 5138 5139 5142 5144 5147 5150 5152 5155 5158 5160 5163 5165 5168 5169 5170 5171 5173 5174 5176 5177 5179 5181 5183 5186 5189 5191 5193 5196 5198 5200 5203 5205 5208 5209 5210 5212 5213 5214 5216 5219 5222 5224 5227 5230 5233 5236 5238 5240
5298 5294 5288 5283 5279 5274 5270 5266 5261 5256 5251 5245 5240 5234 5228 5223 5217 5213 5209 5203 5197 5192 5186 5180 5174 5168 5161 5156 5153 5150 5146 5141 5139 5137 5134 5132 5129 5127 5129 5131 5134 5137 5139 5142 5145 5148 5150 5153 5155 5158 5160 5161 5162 5163 5165 5167 5168 5170 5173 5175 5178 5180 5183 5185 5187 5189 5192 5194 5197 5200 5201 5202 5204 5206 5207 5210 5213 5215 5218 5221 5224 5227 5229 5231 5233
5287 5282 5277 5272 5267 5262 5257 5254 5249 5243 5238 5233 5228 5222 5216 5210 5204 5200 5196 5190 5183 5177 5171 5164 5159 5154 5148 5143 5140 5138 5134 5129 5127 5125 5123 5121 5118 5117 5119 5121 5123 5126 5129 5132 5135 5138 5141 5143 5146 5148 5150 5152 5152 5153 5155 5157 5160 5162 5164 5167 5170 5172 5175 5177 5179 5181 5183 5186 5189 5192 5193 5194 5196 5199 5201 5204 5207 5209 5212 5216 5219 5221 5222 5224 5227
5276 5271 5265 5260 5255 5250 5245 5240 5236 5231 5226 5221 5215 5209 5203 5198 5192 5186 5183 5178 5171 5164 5157 5151 5145 5140 5136 5132 5128 5126 5123 5118 5116 5114 5113 5111 5109 5108 5109 5111 5114 5117 5119 5122 5126 5129 5131 5134 5136 5139 5141 5142 5143 5145 5146 5148 5151 5154 5156 5159 5162 5165 5167 5169 5170 5172 5175 5178 5181 5184 5186 5187 5189 5192 5195 5198 5201 5204 5207 5210 5212 5213 5215 5218 5221
5264 5259 5253 5248 5243 5238 5232 5227 5222 5218 5213 5208 5202 5197 5191 5186 5179 5173 5169 5164 5159 5151 5145 5140 5135 5129 5125 5121 5116 5113 5112 5108 5105 5104 5103 5101 5099 5099 5100 5102 5105 5108 5110 5113 5116 5119 5122 5124 5127 5129 5131 5133 5135 5136 5137 5139 5143 5146 5149 5151 5154 5157 5159 5161 5162 5165 5168 5171 5174 5177 5179 5181 5183 5186 5189 5192 5195 5198 5201 5204 5205 5207 5210 5213 5215
5254 5248 5243 5237 5232 5226 5220 5215 5210 5205 5201 5195 5189 5183 5178 5173 5167 5161 5156 5150 5145 5139 5133 5129 5126 5121 5115 5111 5105 5101 5100 5098 5095 5094 5094 5093 5091 5090 5090 5093 5096 5099 5101 5104 5107 5110 5113 5115 5118 5120 5122 5125 5126 5128 5129 5131 5135 5139 5142 5144 5147 5150 5151 5152 5155 5158 5161 5164 5167 5169 5172 5175 5176 5180 5183 5186 5189 5192 5195 5197 5199 5202 5205 5207 5210
5244 5238 5233 5227 5221 5215 5209 5203 5198 5192 5187 5183 5177 5170 5165 5160 5155 5149 5145 5139 5133 5128 5122 5119 5117 5113 5107 5101 5096 5091 5089 5088 5086 5084 5084 5084 5082 5081 5082 5085 5088 5091 5093 5096 5099 5102 5104 5106 5109 5111 5114 5116 5118 5120 5122 5124 5128 5132 5135 5137 5140 5142 5142 5145 5148 5152 5155 5158 5161 5163 5166 5168 5171 5174 5178 5180 5183 5186 5188 5191 5194 5196 5199 5202 5205
5234 5228 5222 5216 5210 5204 5197 5191 5186 5180 5175 5170 5165 5159 5152 5147 5142 5137 5134 5129 5123 5118 5113 5110 5108 5104 5098 5092 5086 5082 5079 5077 5076 5075 5075 5075 5074 5073 5074 5077 5079 5082 5085 5088 5091 5093 5096 5098 5101 5103 5106 5108 5111 5113 5115 5118 5121 5124 5128 5131 5132 5133 5135 5139 5142 5145 5149 5152 5154 5157 5160 5162 5165 5169 5172 5175 5177 5180 5183 5186 5189 5191 5193 5197 5200
5223 5217 5211 5205 5199 5193 5186 5179 5173 5168 5163 5158 5153 5148 5141 5135 5130 5125 5122 5118 5114 5109 5105 5101 5099 5095 5089 5083 5077 5074 5071 5069 5067 5066 5066 5066 5067 5066 5067 5069 5072 5075 5078 5081 5083 5085 5088 5091 5093 5096 5098 5101 5103 5106 5109 5111 5114 5117 5121 5124 5125 5127 5130 5133 5136 5139 5143 5146 5148 5151 5154 5157 5160 5163 5167 5170 5172 5175 5178 5180 5183 5185 5188 5191 5195
5212 5205 5200 5194 5188 5181 5175 5169 5162 5156 5151 5146 5141 5136 5131 5126 5120 5114 5111 5108 5105 5100 5096 5093 5090 5086 5081 5075 5070 5066 5064 5062 5060 5059 5059 5059 5060 5060 5060 5062 5065 5067 5071 5074 5076 5078 5081 5084 5086 5088 5091 5094 5096 5099 5102 5104 5107 5110 5113 5117 5119 5121 5124 5127 5130 5133 5137 5140 5143 5146 5149 5152 5155 5158 5162 5165 5167 5169 5172 5174 5176 5179 5183 5186 5190
5201 5194 5189 5183 5177 5171 5165 5159 5152 5146 5140 5135 5131 5126 5121 5117 5111 5105 5101 5098 5095 5092 5088 5085 5081 5078 5073 5069 5064 5060 5058 5056 5054 5053 5053 5053 5053 5054 5054 5056 5058 5061 5064 5067 5069 5072 5074 5076 5079 5081 5084 5087 5090 5092 5095 5097 5100 5103 5106 5110 5113 5116 5118 5121 5124 5127 5131 5134 5138 5141 5144 5146 5150 5153 5157 5159 5161 5163 5166 5169 5172 5175 5179 5183 5186
5190 5184 5179 5173 5167 5162 5156 5150 5143 5137 5130 5125 5121 5117 5112 5108 5103 5097 5093 5090 5087 5083 5080 5077 5074 5070 5066 5062 5058 5056 5053 5051 5050 5049 5048 5047 5048 5048 5049 5051 5053 5055 5058 5061 5063 5065 5067 5069 5072 5074 5077 5080 5083 5086 5088 5091 5094 5096 5100 5103 5107 5110 5113 5116 5119 5122 5125 5129 5133 5136 5138 5141 5144 5148 5151 5153 5155 5158 5162 5165 5168 5171 5175 5179 5182
5181 5174 5169 5163 5157 5152 5147 5142 5135 5129 5123 5117 5112 5107 5103 5099 5095 5090 5086 5083 5079 5076 5073 5070 5067 5064 5059 5055 5052 5050 5048 5046 5045 5044 5043 5043 5043 5043 5044 5046 5048 5050 5053 5055 5057 5059 5061 5063 5065 5068 5071 5074 5077 5079 5082 5085 5088 5091 5094 5097 5101 5105 5108 5111 5114 5117 5120 5124 5127 5130 5133 5136 5139 5142 5145 5148 5151 5154 5158 5162 5165 5168 5171 5174 5177
5170 5164 5159 5153 5147 5142 5137 5132 5128 5122 5116 5110 5105 5099 5095 5090 5086 5081 5078 5076 5072 5069 5066 5064 5061 5059 5055 5050 5047 5045 5043 5041 5040 5039 5038 5038 5038 5039 5039 5041 5042 5043 5046 5048 5050 5052 5054 5057 5059 5062 5065 5068 5070 5073 5076 5079 5082 5085 5089 5092 5096 5099 5102 5105 5109 5112 5115 5119 5122 5125 5127 5131 5134 5137 5140 5143 5146 5150 5154 5158 5161 5163 5166 5169 5173
5159 5153 5148 5143 5137 5132 5127 5122 5118 5114 5109 5103 5098 5093 5088 5083 5078 5073 5070 5067 5065 5063 5061 5058 5056 5054 5050 5046 5044 5042 5039 5035 5034 5034 5034 5034 5034 5034 5034 5034 5034 5036 5038 5041 5044 5046 5048 5050 5053 5056 5059 5061 5064 5066 5070 5073 5076 5080 5083 5087 5090 5094 5097 5100 5104 5107 5110 5114 5117 5120 5123 5126 5129 5132 5136 5139 5142 5146 5150 5154 5156 5159 5162 5165 5169
5149 5143 5138 5133 5127 5123 5118 5113 5109 5105 5101 5097 5092 5086 5080 5075 5071 5067 5063 5059 5056 5054 5053 5052 5050 5048 5045 5042 5040 5039 5036 5032 5030 5029 5029 5029 5029 5028 5028 5029 5029 5031 5033 5036 5038 5040 5042 5045 5047 5050 5053 5055 5058 5061 5064 5067 5071 5074 5078 5082 5085 5089 5092 5096 5099 5103 5106 5109 5113 5116 5119 5122 5125 5128 5131 5134 5138 5142 5145 5149 5152 5154 5158 5161 5164
5139 5133 5128 5123 5118 5114 5110 5105 5101 5097 5093 5090 5086 5081 5075 5067 5062 5059 5057 5054 5049 5045 5044 5044 5042 5040 5039 5036 5034 5033 5032 5030 5027 5025 5025 5025 5024 5024 5024 5024 5025 5026 5029 5031 5033 5035 5037 5040 5042 5045 5048 5050 5053 5056 5059 5062 5066 5070 5073 5077 5080 5084 5087 5091 5095 5098 5101 5105 5108 5111 5114 5117 5120 5123 5127 5130 5134 5137 5141 5144 5147 5150 5153 5157 5160
5130 5125 5120 5115 5110 5105 5101 5097 5093 5089 5085 5081 5079 5076 5072 5066 5057 5050 5047 5047 5045 5040 5037 5036 5035 5033 5032 5031 5029 5027 5027 5025 5023 5022 5021 5021 5020 5019 5019 5020 5021 5022 5024 5026 5028 5031 5033 5035 5037 5040 5043 5045 5048 5051 5054 5058 5062 5065 5069 5072 5076 5079 5083 5087 5090 5094 5097 5100 5103 5107 5109 5112 5116 5119 5122 5126 5129 5132 5136 5139 5143 5146 5149 5152 5155
5120 5116 5111 5106 5101 5096 5092 5088 5085 5081 5078 5074 5070 5068 5066 5064 5058 5050 5042 5038 5037 5035 5033 5031 5030 5028 5026 5025 5024 5023 5022 5021 5019 5018 5017 5017 5016 5015 5015 5016 5017 5018 5020 5022 5024 5026 5028 5030 5033 5035 5038 5041 5043 5047 5050 5054 5058 5061 5065 5068 5072 5076 5079 5083 5086 5089 5093 5096 5099 5102 5105 5108 5111 5115 5118 5121 5124 5128 5131 5135 5138 5141 5145 5148 5151
5111 5106 5102 5098 5093 5088 5084 5080 5076 5073 5070 5067 5064 5061 5058 5056 5054 5051 5043 5036 5031 5028 5026 5025 5025 5024 5022 5020 5019 5018 5017 5017 5015 5014 5013 5012 5012 5011 5011 5012 5013 5014 5016 5018 5020 5022 5023 5026 5028 5031 5034 5036 5040 5043 5047 5051 5054 5057 5061 5064 5068 5072 5075 5079 5082 5085 5089 5092 5095 5098 5101 5104 5107 5110 5113 5117 5120 5123 5127 5130 5134 5137 5140 5144 5147
5103 5098 5092 5088 5085 5080 5076 5072 5068 5065 5062 5059 5056 5054 5051 5048 5046 5044 5042 5037 5031 5025 5020 5018 5018 5018 5018 5016 5014 5013 5013 5012 5012 5010 5009 5008 5008 5007 5008 5008 5009 5011 5012 5014 5016 5017 5019 5022 5024 5027 5030 5032 5036 5040 5043 5047 5050 5053 5057 5061 5064 5068 5071 5075 5078 5081 5085 5088 5091 5094 5097 5100 5103 5106 5109 5112 5116 5119 5123 5126 5130 5133 5137 5140 5143
5096 5091 5085 5080 5076 5072 5068 5064 5060 5058 5055 5052 5049 5046 5044 5041 5039 5036 5034 5032 5030 5026 5021 5016 5013 5012 5013 5012 5010 5009 5008 5007 5007 5006 5005 5004 5004 5004 5004 5004 5005 5007 5009 5010 5012 5014 5016 5018 5020 5023 5026 5029 5032 5036 5039 5042 5046 5049 5053 5057 5060 5064 5067 5071 5074 5077 5081 5084 5087 5090 5093 5096 5099 5102 5105 5108 5112 5115 5119 5122 5126 5129 5133 5136 5139
5090 5085 5079 5074 5069 5065 5061 5057 5053 5050 5047 5045 5043 5040 5037 5035 5032 5030 5027 5025 5023 5021 5018 5015 5011 5008 5007 5007 5006 5005 5004 5004 5003 5002 5002 5001 5000 5000 5000 5001 5002 5003 5005 5007 5009 5010 5012 5015 5017 5019 5022 5025 5028 5032 5035 5039 5042 5045 5049 5053 5056 5060 5063 5066 5070 5073 5077 5080 5083 5086 5089 5092 5095 5099 5102 5105 5108 5111 5115 5118 5122 5125 5129 5132 5135
5084 5078 5073 5068 5063 5059 5055 5051 5047 5044 5041 5038 5036 5033 5031 5028 5026 5023 5021 5019 5017 5015 5013 5011 5009 5005 5003 5002 5001 5001 5000 5000 4999 4999 4998 4997 4997 4997 4997 4998 4998 5000 5001 5003 5005 5007 5009 5012 5014 5016 5019 5022 5025 5028 5031 5035 5038 5042 5045 5049 5052 5056 5059 5063 5066 5070 5073 5076 5080 5083 5086 5089 5092 5095 5098 5101 5104 5107 5111 5115 5118 5122 5125 5128 5131
5078 5072 5066 5062 5057 5053 5049 5045 5041 5038 5035 5032 5029 5027 5025 5022 5020 5018 5015 5013 5012 5010 5008 5006 5005 5003 5000 4998 4997 4996 4996 4996 4995 4995 4995 4994 4994 4994 4994 4994 4995 4996 4998 5000 5002 5003 5006 5008 5011 5013 5016 5019 5022 5025 5027 5031 5034 5038 5041 5045 5048 5052 5055 5059 5063 5066 5070 5073 5076 5079 5082 5085 5088 5091 5094 5097 5100 5104 5108 5112 5115 5118 5121 5124 5127
5073 5067 5061 5056 5052 5047 5043 5039 5036 5032 5029 5026 5024 5021 5019 5017 5015 5012 5010 5008 5006 5005 5003 5001 5000 4999 4997 4996 4994 4992 4992 4991 4991 4991 4991 4991 4990 4990 4990 4991 4992 4993 4994 4996 4998 5000 5002 5005 5007 5010 5013 5016 5019 5022 5025 5028 5031 5034 5037 5041 5045 5048 5052 5055 5059 5063 5066 5069 5072 5076 5079 5082 5085 5088 5091 5093 5097 5101 5105 5108 5112 5115 5118 5121 5124
5069 5063 5057 5052 5047 5043 5038 5034 5031 5027 5024 5021 5018 5016 5014 5012 5010 5007 5005 5004 5002 5000 4998 4997 4996 4994 4993 4992 4991 4989 4988 4987 4987 4987 4988 4987 4987 4987 4987 4988 4988 4990 4991 4992 4994 4997 4999 5001 5004 5006 5009 5012 5015 5019 5022 5025 5028 5031 5034 5038 5041 5044 5048 5052 5055 5059 5062 5065 5068 5072 5075 5078 5081 5084 5087 5090 5093 5097 5101 5105 5108 5111 5114 5118 5121
5065 5059 5053 5047 5042 5038 5034 5030 5027 5023 5020 5017 5014 5011 5009 5007 5005 5003 5001 4999 4998 4996 4994 4992 4991 4990 4989 4988 4987 4986 4985 4984 4983 4983 4984 4984 4984 4984 4984 4984 4985 4986 4987 4989 4991 4993 4995 4998 5000 5003 5006 5009 5012 5015 5018 5021 5025 5028 5031 5034 5038 5041 5044 5048 5051 5055 5058 5061 5064 5067 5071 5074 5077 5080 5083 5086 5090 5093 5097 5101 5104 5108 5111 5114 5117
5061 5055 5049 5044 5039 5034 5030 5026 5023 5019 5016 5012 5009 5006 5004 5002 5000 4998 4996 4995 4993 4992 4990 4988 4987 4986 4985 4984 4984 4983 4982 4981 4980 4980 4980 4980 4980 4980 4980 4981 4982 4983 4984 4986 4987 4990 4992 4994 4997 5000 5002 5005 5008 5011 5014 5018 5021 5024 5028 5031 5034 5037 5041 5044 5048 5051 5054 5057 5060 5064 5067 5070 5073 5076 5079 5083 5086 5090 5094 5097 5101 5104 5107 5110 5113
5059 5053 5047 5041 5035 5030 5026 5022 5018 5015 5012 5009 5005 5002 5000 4998 4996 4994 4992 4990 4989 4987 4986 4985 4983 4982 4981 4980 4980 4979 4978 4978 4977 4977 4976 4977 4977 4977 4977 4978 4978 4980 4981 4982 4984 4986 4988 4991 4994 4996 4999 5002 5005 5008 5011 5014 5017 5021 5024 5027 5030 5034 5037 5040 5044 5047 5050 5054 5057 5060 5064 5067 5070 5073 5076 5079 5083 5087 5090 5094 5097 5100 5103 5107 5109
5058 5051 5045 5039 5033 5027 5023 5018 5015 5011 5008 5005 5002 4999 4996 4994 4992 4990 4988 4986 4985 4983 4982 4981 4980 4978 4977 4976 4976 4975 4975 4974 4974 4973 4973 4973 4973 4974 4974 4974 4975 4976 4977 4979 4981 4983 4985 4988 4990 4993 4995 4998 5001 5004 5007 5011 5014 5017 5021 5024 5027 5030 5033 5037 5040 5043 5047 5050 5054 5057 5060 5063 5067 5070 5073 5076 5079 5083 5086 5090 5093 5096 5100 5103 5105
5056 5050 5044 5038 5032 5026 5021 5016 5012 5008 5005 5002 4998 4995 4992 4990 4988 4986 4984 4982 4981 4979 4978 4977 4976 4975 4974 4973 4972 4971 4971 4971 4970 4970 4970 4970 4970 4970 4971 4971 4972 4973 4974 4976 4977 4980 4982 4984 4987 4989 4992 4995 4998 5001 5004 5007 5011 5014 5017 5021 5024 5027 5030 5033 5036 5040 5043 5047 5050 5054 5057 5060 5063 5066 5069 5072 5076 5079 5083 5086 5090 5093 5096 5099 5102
5056 5049 5043 5037 5031 5025 5020 5015 5010 5006 5002 4999 4995 4992 4989 4987 4984 4982 4980 4979 4977 4976 4974 4973 4972 4971 4970 4969 4969 4968 4967 4967 4967 4967 4967 4967 4967 4967 4967 4968 4969 4969 4971 4972 4974 4976 4978 4981 4984 4986 4989 4992 4995 4998 5001 5004 5007 5011 5014 5017 5021 5024 5027 5030 5033 5036 5040 5044 5047 5050 5054 5057 5060 5063 5066 5069 5073 5076 5079 5083 5086 5089 5092 5095 5098
5056 5049 5043 5037 5031 5025 5019 5014 5009 5004 5000 4996 4992 4989 4986 4984 4981 4979 4977 4975 4973 4972 4970 4969 4968 4967 4966 4966 4965 4965 4964 4963 4963 4963 4963 4963 4963 4964 4964 4965 4965 4966 4967 4969 4971 4973 4975 4978 4980 4983 4986 4988 4991 4994 4997 5001 5004 5007 5011 5014 5017 5021 5024 5027 5030 5033 5037 5040 5044 5047 5050 5053 5056 5059 5062 5066 5069 5073 5076 5079 5082 5086 5089 5092 5095
5056 5049 5043 5036 5030 5024 5019 5013 5008 5003 4998 4994 4990 4986 4983 4981 4978 4976 4973 4971 4969 4968 4967 4965 4964 4963 4962 4962 4962 4961 4961 4960 4960 4960 4960 4960 4960 4961 4961 4962 4962 4963 4964 4965 4967 4969 4972 4974 4977 4980 4982 4985 4988 4991 4994 4997 5000 5004 5007 5011 5014 5017 5021 5024 5027 5030 5034 5037 5040 5043 5046 5049 5052 5056 5059 5062 5066 5069 5072 5076 5079 5082 5085 5088 5091
5056 5049 5043 5036 5029 5023 5018 5012 5007 5002 4997 4993 4988 4984 4981 4977 4975 4973 4970 4968 4966 4964 4963 4962 4960 4959 4958 4958 4958 4958 4957 4957 4956 4956 4956 4957 4957 4957 4958 4958 4959 4960 4961 4962 4964 4966 4968 4971 4973 4976 4979 4982 4985 4988 4991 4994 4997 5000 5003 5007 5011 5014 5017 5021 5024 5027 5030 5034 5037 5040 5043 5046 5049 5052 5055 5059 5062 5066 5069 5072 5075 5079 5082 5085 5088
5057 5049 5042 5036 5029 5023 5017 5011 5006 5001 4996 4991 4987 4983 4979 4975 4972 4969 4967 4965 4963 4961 4959 4958 4957 4956 4955 4954 4954 4954 4954 4954 4953 4953 4953 4953 4954 4954 4955 4955 4956 4957 4957 4959 4960 4962 4964 4967 4970 4973 4976 4979 4982 4984 4987 4990 4993 4997 5000 5003 5007 5010 5014 5017 5021 5024 5027 5030 5034 5036 5039 5042 5046 5049 5052 5055 5059 5062 5065 5069 5072 5075 5078 5082 5085
5057 5050 5043 5036 5030 5023 5017 5011 5005 5000 4995 4990 4985 4981 4977 4973 4969 4966 4964 4962 4960 4958 4956 4954 4953 4952 4951 4950 4950 4950 4950 4950 4950 4950 4950 4950 4950 4951 4951 4952 4953 4953 4954 4955 4957 4958 4961 4963 4966 4969 4972 4975 4978 4981 4984 4987 4990 4993 4996 4999 5003 5006 5010 5014 5017 5021 5024 5027 5030 5033 5036 5039 5042 5046 5049 5052 5056 5059 5062 5065 5069 5072 5075 5079 5082